CMS-01

Last updated on Tue Jul 08 2025 00:02:48 GMT+0000 (Coordinated Universal Time)

1 47256U 20099A 25188.64946052 -.00000148 00000+0 00000+0 0 9996 2 47256 0.0372 95.4050 0003963 175.1643 332.0998 1.00272167 16747
UTC large
Height (km)
Speed (km/s)
/
Latitude / Longitude
Inclination (degrees)
Orbital Period (minutes)
Azimuth
Elevation
Range (km)
Doppler Factor

Next 0 passes for location: London (51.5072 / 0.1276)

Sorry there are no passes over London.